Home   Weather   Sevilla   Past weeks

Flag for Spain Past Weather in Sevilla, Spain — Yesterday and Last 2 Weeks

Now
63 °F

Passing clouds.


Feels Like: 63 °F
Forecast: 44 / 66 °F
Wind: 14 mph from East

Location: Sevilla / San Pablo

Current Time: Feb 19, 2017 at 3:15:59 pm

Latest Report: Feb 19, 2017 at 2:30 pm


Visibility: N/A

Pressure: 30.09 "Hg

Humidity: 59%

Dew Point: 48 °F

Location of SevillaLocation

Past Weather in Sevilla — Graph

°F

Sevilla Temperature Yesterday

Maximum temperature yesterday: 64 °F (at 3:00 pm)
Minimum temperature yesterday: 45 °F (at 7:30 am)
Average temperature yesterday: 54 °F

High & Low Weather Summary for the Past Weeks

 TemperatureHumidityPressure
High68 °F (Feb 15, 2:30 pm)100% (Feb 7, 2:30 am)30.51 "Hg (Feb 7, 2:30 am)
Low39 °F (Feb 9, 5:00 am)36% (Feb 8, 2:30 pm)29.39 "Hg (Feb 12, 6:00 pm)
Average54 °F78%30.11 "Hg
* Reported Feb 4 2:00 pm — Feb 19 2:00 pm, Sevilla, Weather by CustomWeather, © 2017

Note: Actual official high and low records may vary slightly from our data, if they occured in-between our weather recording intervals... More about our weather records

Advertising

Sevilla Weather History for the Previous 24 Hours

Scroll right to see more
 ConditionsComfort  
Time TempWeatherWind HumidityBarometerVisibility
2:00 pm
Sun, Feb 19
61 °FPassing clouds.12 mph72%30.09 "HgN/A
1:30 pm59 °FPassing clouds.14 mph72%30.09 "HgN/A
1:00 pm59 °FPassing clouds.13 mph72%30.09 "HgN/A
12:30 pm57 °FPassing clouds.10 mph77%30.09 "HgN/A
12:00 pm57 °FPassing clouds.14 mph77%30.12 "HgN/A
11:30 am55 °FPassing clouds.15 mph82%30.09 "HgN/A
11:00 am54 °FPassing clouds.16 mph88%30.09 "HgN/A
10:30 am54 °FPassing clouds.13 mph88%30.09 "HgN/A
10:00 am54 °FPassing clouds.8 mph82%30.07 "HgN/A
9:30 am52 °FPassing clouds.9 mph88%30.07 "HgN/A
9:00 am52 °FPassing clouds.14 mph88%30.07 "HgN/A
8:30 am52 °FScattered clouds.14 mph88%30.04 "HgN/A
8:00 am52 °FPassing clouds.13 mph88%30.04 "HgN/A
7:30 am52 °FPassing clouds.14 mph88%30.04 "HgN/A
7:00 am52 °FPartly cloudy.9 mph94%30.04 "HgN/A
6:30 am52 °FLight rain. Partly cloudy.9 mph94%30.01 "Hg5 mi
6:00 am52 °FLight rain. Passing clouds.10 mph94%30.01 "HgN/A
5:30 am52 °FPassing clouds.13 mph94%30.01 "HgN/A
5:00 am52 °FRain. Passing clouds.14 mph94%30.01 "Hg3 mi
4:30 am52 °FClear.6 mph94%30.01 "Hg10 mi
3:30 am52 °FClear.7 mph94%30.04 "Hg10 mi
3:00 am54 °FClear.7 mph88%30.04 "Hg10 mi
2:30 am54 °FClear.7 mph88%30.04 "Hg10 mi
2:00 am54 °FPassing clouds.6 mph88%30.04 "HgN/A
1:30 am54 °FClear.6 mph88%30.04 "Hg10 mi
1:00 am54 °FLight rain. Passing clouds.2 mph82%30.07 "HgN/A
12:30 am54 °FClear.2 mph82%30.07 "Hg10 mi
12:00 am54 °FClear.5 mph88%30.07 "Hg10 mi
11:30 pm
Sat, Feb 18
54 °FClear.1 mph94%30.07 "Hg10 mi
11:00 pm54 °FClear.No wind94%30.07 "Hg10 mi
10:30 pm55 °FClear.2 mph88%30.07 "Hg10 mi
10:00 pm57 °FClear.3 mph82%30.07 "Hg10 mi
9:30 pm57 °FPassing clouds.3 mph88%30.07 "HgN/A
9:00 pm57 °FPassing clouds.6 mph88%30.07 "HgN/A
8:30 pm59 °FPassing clouds.10 mph82%30.07 "HgN/A
8:00 pm59 °FPassing clouds.9 mph82%30.07 "HgN/A
7:30 pm61 °FPassing clouds.9 mph77%30.07 "HgN/A
7:00 pm61 °FPassing clouds.7 mph83%30.07 "HgN/A
6:30 pm63 °FPassing clouds.7 mph77%30.07 "HgN/A
6:00 pm63 °FPassing clouds.8 mph77%30.07 "HgN/A
5:30 pm63 °FPassing clouds.12 mph77%30.07 "HgN/A
5:00 pm64 °FPassing clouds.7 mph68%30.09 "HgN/A
4:30 pm64 °FPassing clouds.8 mph68%30.09 "HgN/A
4:00 pm64 °FPassing clouds.7 mph64%30.12 "HgN/A
3:30 pm64 °FPassing clouds.3 mph64%30.12 "HgN/A
3:00 pm64 °FPassing clouds.5 mph60%30.15 "HgN/A
Weather by CustomWeather, © 2017

See weather overviewHow to use our weather pages